User: anonymous
Location: UBC Liquid-Mirror Observatory
(49.2876°N, 122.5728°W)
Time: 20:54:47
(UTC-07:00)
Language:

Cosmos 1743 Rocket - Orbit

View from above orbital plane
View from above orbital plane
View from above satellite
View from above satellite

Ground track
Ground track

The orbit data is extracted from the following two-line orbital elements,

1 16720U 86034B   14261.50245012  .00000417  00000-0  48502-4 0  5485
2 16720 082.5513 096.0808 0021219 164.9851 256.7792 14.82789932530641
Epoch (UTC): 18 September 2014 12:03:31
Eccentricity: 0.0021219
inclination: 82.5513°
perigee height: 605 km
apogee height: 635 km
right ascension of ascending node: 96.0808°
argument of perigee: 164.9851°
revolutions per day: 14.82789932
mean anomaly at epoch: 256.7792°
orbit number at epoch: 53064

The dashed part of the orbit path shows where the satellite is in the earth's shadow,  

DLR